Вернуться в каталог

SL-12 DEB

LostHEO
NORAD 29443·DEBRIS·🇷🇺 Russia

Запущен May 31, 1989 с Baikonur Cosmodrome

Loading…

Ближайшие Пролёты (ближайшие 24 часа)

TLE

УстаревшееSource: Space-Track

Эпоха: Apr 2, 2019, 17:20 UTC

1 29443U 89039CS  19092.72263944 -.00000031  00000-0  00000-0 0  9994
2 29443  62.6071 232.0821 3609729 154.9158 228.2201  4.91698866199804

Отслеживайте SL-12 DEB в реальном времени с AllMySat

Download on the App Store